sat.trackr.live / text

‹ back to catalog

STARLINK-32529

NORAD 62139 · 2024-224A

PAYLOAD ACTIVE UNKNOWN

§ Identity

Operator
Country
US
Launch date
2024-11-30
Launch site
AFETR
Launch vehicle
Mass (kg)
RCS (m²)

Purposes: comms

External: N2YO · Heavens-Above · Gunter

§ Orbital elements

Epoch: 2026-05-24T21:43:04.503072Z

Period
94.27 min
Inclination
43.0046°
Eccentricity
0.0001626
Mean motion
15.27591417 rev/d
Perigee alt
481.9 km
Apogee alt
484.1 km
Semi-major
6,861.2 km
B*
9.9929e-4
RAAN
87.9201°
Arg perigee
258.0782°
Mean anomaly
101.9887°
Rev number
8,407

§ Raw data

STARLINK-325291 62139U 24224A   26144.90491323  .00027348  00000+0  99929-3 0  99972 62139  43.0046  87.9201 0001626 258.0782 101.9887 15.27591417 84079

JSON: /api/v1/satellites/62139 · /tle

For live sub-satellite position, see the globe view (requires WebGL).

§ Visibility from observer

Set your observer location to see the next 7 days of passes ≥ 10°. The values pass through the URL so the page stays shareable.

No JS? Fill the form by hand. The geolocation button needs JavaScript.